<?xml version="1.0"?>
<gpx xmlns="http://www.topografix.com/GPX/1/1" xmlns:xsi="http://www.w3.org/2001/XMLSchema-instance" version="1.1" creator="GPX RubyGem 1.0.0 -- http://dougfales.github.io/gpx/" xsi:schemaLocation="http://www.topografix.com/GPX/1/1 http://www.topografix.com/GPX/1/1/gpx.xsd">
  <metadata>
    <name/>
    <time>2026-05-09T18:53:06+00:00</time>
    <bound minlat="90.0" minlon="180.0" maxlat="-90.0" maxlon="-180.0"/>
  </metadata>
  <trk>
    <name/>
    <trkseg>
      <trkpt lat="51.665253" lon="9.367132">
        <time>1970-01-01T00:00:00+00:00</time>
        <ele>123.0</ele>
      </trkpt>
      <trkpt lat="51.665191" lon="9.367169">
        <time>1970-01-01T00:00:00+00:00</time>
        <ele>122.0</ele>
      </trkpt>
      <trkpt lat="51.665116" lon="9.367227">
        <time>1970-01-01T00:00:00+00:00</time>
        <ele>122.0</ele>
      </trkpt>
      <trkpt lat="51.665016" lon="9.367291">
        <time>1970-01-01T00:00:00+00:00</time>
        <ele>120.0</ele>
      </trkpt>
      <trkpt lat="51.664852" lon="9.367536">
        <time>1970-01-01T00:00:00+00:00</time>
        <ele>117.0</ele>
      </trkpt>
      <trkpt lat="51.664804" lon="9.367456">
        <time>1970-01-01T00:00:00+00:00</time>
        <ele>117.0</ele>
      </trkpt>
      <trkpt lat="51.664658" lon="9.367187">
        <time>1970-01-01T00:00:00+00:00</time>
        <ele>118.0</ele>
      </trkpt>
      <trkpt lat="51.664593" lon="9.367131">
        <time>1970-01-01T00:00:00+00:00</time>
        <ele>118.0</ele>
      </trkpt>
      <trkpt lat="51.664561" lon="9.367143">
        <time>1970-01-01T00:00:00+00:00</time>
        <ele>118.0</ele>
      </trkpt>
      <trkpt lat="51.664536" lon="9.367073">
        <time>1970-01-01T00:00:00+00:00</time>
        <ele>118.0</ele>
      </trkpt>
      <trkpt lat="51.664523" lon="9.367016">
        <time>1970-01-01T00:00:00+00:00</time>
        <ele>119.0</ele>
      </trkpt>
      <trkpt lat="51.664516" lon="9.366946">
        <time>1970-01-01T00:00:00+00:00</time>
        <ele>119.0</ele>
      </trkpt>
      <trkpt lat="51.664517" lon="9.36686">
        <time>1970-01-01T00:00:00+00:00</time>
        <ele>120.0</ele>
      </trkpt>
      <trkpt lat="51.664518" lon="9.366696">
        <time>1970-01-01T00:00:00+00:00</time>
        <ele>121.0</ele>
      </trkpt>
      <trkpt lat="51.664535" lon="9.365752">
        <time>1970-01-01T00:00:00+00:00</time>
        <ele>125.0</ele>
      </trkpt>
      <trkpt lat="51.664598" lon="9.365182">
        <time>1970-01-01T00:00:00+00:00</time>
        <ele>128.0</ele>
      </trkpt>
      <trkpt lat="51.664666" lon="9.365162">
        <time>1970-01-01T00:00:00+00:00</time>
        <ele>130.0</ele>
      </trkpt>
      <trkpt lat="51.665074" lon="9.364982">
        <time>1970-01-01T00:00:00+00:00</time>
        <ele>142.0</ele>
      </trkpt>
      <trkpt lat="51.66529" lon="9.365104">
        <time>1970-01-01T00:00:00+00:00</time>
        <ele>142.0</ele>
      </trkpt>
      <trkpt lat="51.66537" lon="9.365272">
        <time>1970-01-01T00:00:00+00:00</time>
        <ele>141.0</ele>
      </trkpt>
      <trkpt lat="51.66537" lon="9.365272">
        <time>1970-01-01T00:00:00+00:00</time>
        <ele>141.0</ele>
      </trkpt>
      <trkpt lat="51.66529" lon="9.365104">
        <time>1970-01-01T00:00:00+00:00</time>
        <ele>142.0</ele>
      </trkpt>
      <trkpt lat="51.665074" lon="9.364982">
        <time>1970-01-01T00:00:00+00:00</time>
        <ele>142.0</ele>
      </trkpt>
      <trkpt lat="51.664666" lon="9.365162">
        <time>1970-01-01T00:00:00+00:00</time>
        <ele>130.0</ele>
      </trkpt>
      <trkpt lat="51.664598" lon="9.365182">
        <time>1970-01-01T00:00:00+00:00</time>
        <ele>128.0</ele>
      </trkpt>
      <trkpt lat="51.664535" lon="9.365752">
        <time>1970-01-01T00:00:00+00:00</time>
        <ele>125.0</ele>
      </trkpt>
      <trkpt lat="51.664518" lon="9.366696">
        <time>1970-01-01T00:00:00+00:00</time>
        <ele>121.0</ele>
      </trkpt>
      <trkpt lat="51.664517" lon="9.36686">
        <time>1970-01-01T00:00:00+00:00</time>
        <ele>120.0</ele>
      </trkpt>
      <trkpt lat="51.664516" lon="9.366946">
        <time>1970-01-01T00:00:00+00:00</time>
        <ele>119.0</ele>
      </trkpt>
      <trkpt lat="51.664523" lon="9.367016">
        <time>1970-01-01T00:00:00+00:00</time>
        <ele>119.0</ele>
      </trkpt>
      <trkpt lat="51.664536" lon="9.367073">
        <time>1970-01-01T00:00:00+00:00</time>
        <ele>118.0</ele>
      </trkpt>
      <trkpt lat="51.664561" lon="9.367143">
        <time>1970-01-01T00:00:00+00:00</time>
        <ele>118.0</ele>
      </trkpt>
      <trkpt lat="51.664593" lon="9.367131">
        <time>1970-01-01T00:00:00+00:00</time>
        <ele>118.0</ele>
      </trkpt>
      <trkpt lat="51.664658" lon="9.367187">
        <time>1970-01-01T00:00:00+00:00</time>
        <ele>118.0</ele>
      </trkpt>
      <trkpt lat="51.664804" lon="9.367456">
        <time>1970-01-01T00:00:00+00:00</time>
        <ele>117.0</ele>
      </trkpt>
      <trkpt lat="51.664852" lon="9.367536">
        <time>1970-01-01T00:00:00+00:00</time>
        <ele>117.0</ele>
      </trkpt>
      <trkpt lat="51.665016" lon="9.367291">
        <time>1970-01-01T00:00:00+00:00</time>
        <ele>120.0</ele>
      </trkpt>
      <trkpt lat="51.665116" lon="9.367227">
        <time>1970-01-01T00:00:00+00:00</time>
        <ele>122.0</ele>
      </trkpt>
      <trkpt lat="51.665191" lon="9.367169">
        <time>1970-01-01T00:00:00+00:00</time>
        <ele>122.0</ele>
      </trkpt>
      <trkpt lat="51.665253" lon="9.367132">
        <time>1970-01-01T00:00:00+00:00</time>
        <ele>123.0</ele>
      </trkpt>
    </trkseg>
  </trk>
</gpx>
